KF0FSA Weather Reports


Display with metric or nautical units.
time (UTC)temp
F
wind
direction
speed
MPH
gust
MPH
rain 1hr
in
rain 24hr
in
rain mn
in
humidity
%
barometer
mb
20260504110559 51 326 2.0 6.0 0.00 0.00 0.00 62 947.3
20260504081029 54 177 3.0 8.0 0.00 0.00 0.00 48 948.8
20260504045924 55 264 1.0 3.0 0.00 0.00 0.00 46 951.5
20260504045422 55 0 1.0 4.0 0.00 0.00 0.00 45 951.5
20260504044420 55 237 0.0 2.0 0.00 0.00 0.00 46 951.6
20260504042910 56 0 1.0 3.0 0.00 0.00 0.00 45 951.8
20260504033407 57 257 0.0 2.0 0.00 0.00 0.00 44 952.5
20260504030408 57 307 1.0 3.0 0.00 0.00 0.00 44 953.0
20260504025355 58 0 0.0 4.0 0.00 0.00 0.00 44 953.2
20260504023353 59 0 0.0 4.0 0.00 0.00 0.00 42 953.2
20260504021348 60 0 0.0 2.0 0.00 0.00 0.00 41 953.3
20260504011839 66 0 1.0 3.0 0.00 0.00 0.00 37 953.4
20260503235331 72 271 3.0 9.0 0.00 0.00 0.00 30 953.8
20260503233825 72 109 3.0 9.0 0.00 0.00 0.00 28 953.9
20260503223825 73 284 3.0 9.0 0.00 0.00 0.00 29 954.4
20260503223323 73 237 3.0 9.0 0.00 0.00 0.00 28 954.5
20260503221820 73 170 4.0 10.0 0.00 0.00 0.00 28 954.5
20260503201304 72 316 5.0 9.0 0.00 0.00 0.00 31 956.1
20260503200111 71 343 5.0 9.0 0.00 0.00 0.00 33 956.3
20260503192013 70 303 6.0 11.0 0.00 0.00 0.00 33 956.7
20260503191037 70 309 7.0 14.0 0.00 0.00 0.00 33 956.7
20260503190536 71 340 6.0 14.0 0.00 0.00 0.00 33 956.7
20260503190237 71 357 5.0 11.0 0.00 0.00 0.00 33 956.8
20260503185536 70 312 6.0 11.0 0.00 0.00 0.00 33 956.8
20260503185037 70 214 6.0 13.0 0.00 0.00 0.00 33 956.9
20260503184537 70 329 7.0 13.0 0.00 0.00 0.00 34 957.0
20260503184035 71 329 6.0 13.0 0.00 0.00 0.00 34 956.9
20260503183532 71 308 5.0 9.0 0.00 0.00 0.00 34 957.0
20260503183033 70 289 5.0 9.0 0.00 0.00 0.00 31 957.1
20260503182733 70 26 5.0 12.0 0.00 0.00 0.00 32 957.2
20260503182232 70 255 6.0 12.0 0.00 0.00 0.00 32 957.3
20260503181732 70 332 7.0 12.0 0.00 0.00 0.00 30 957.4
20260503181031 70 330 6.0 12.0 0.00 0.00 0.00 33 957.4
20260503180531 70 359 6.0 11.0 0.00 0.00 0.00 35 957.3
20260503180031 70 282 5.0 11.0 0.00 0.00 0.00 34 957.3
20260503175531 70 359 5.0 11.0 0.00 0.00 0.00 33 957.4
20260503175042 70 288 6.0 11.0 0.00 0.00 0.00 34 957.5
20260503174532 70 337 6.0 11.0 0.00 0.00 0.00 34 957.5
20260503174031 70 308 6.0 11.0 0.00 0.00 0.00 35 957.5
20260503173532 69 16 6.0 11.0 0.00 0.00 0.00 35 957.5
20260503173031 69 297 5.0 11.0 0.00 0.00 0.00 36 957.6
20260503172532 69 336 5.0 13.0 0.00 0.00 0.00 35 957.7
20260503172037 69 290 6.0 13.0 0.00 0.00 0.00 35 957.7
20260503171532 69 258 6.0 12.0 0.00 0.00 0.00 35 957.7
20260503171029 69 293 5.0 10.0 0.00 0.00 0.00 37 957.7
20260503170526 68 308 5.0 10.0 0.00 0.00 0.00 36 957.7
20260503150521 63 336 5.0 11.0 0.00 0.00 0.00 41 958.0
20260503131007 55 344 4.0 9.0 0.00 0.00 0.00 58 957.6